M I D A S
Marine Information and Data Acquisition System
Tripno 1787 of the Zeeleeuw from 2009-10-05 06:36:28 to 2009-10-06 10:47:42
Back to CruiseResearch ActivitiesStationsMapUnderway DataData graphs

EquipmentUnitsComments
TimeDGPSUTC
LatitudeDGPSDM.mWGS84
LongitudeDGPSDM.mWGS84
SpeedMeteo Stationm/sRelative wind speed
DirectionMeteo StationdegRelative wind direction
TemperatureMeteo Stationdeg CelciusAir temperature
PressureMeteo StationPaAtmospheric pressure
HumidityMeteo Station%Relative humidity
Missing or incorrect values are displayed as -999
Metereological data collected by the RV Zeeleeuw from 2009-10-05 07:25:32 to 2009-10-06 12:07:42
Time Latitude Longitude Speed Direction Temperature Pressure Humidity
2009-10-05 07:27 51°13.668 2°55.933 -999 -999 -999 -999 -999
2009-10-05 07:29 51°13.683 2°55.775 -999 -999 -999 -999 -999
2009-10-05 07:31 51°13.709 2°55.739 -999 -999 -999 -999 -999
2009-10-05 07:33 51°13.913 2°55.569 -999 -999 -999 -999 -999
2009-10-05 07:35 51°14.119 2°55.414 -999 -999 -999 -999 -999
2009-10-05 07:37 51°14.286 2°55.202 -999 -999 -999 -999 -999
2009-10-05 07:39 51°14.502 2°54.863 -999 -999 -999 -999 -999
2009-10-05 07:41 51°14.793 2°54.516 -999 -999 -999 -999 -999
2009-10-05 07:43 51°15.089 2°54.168 -999 -999 -999 -999 -999
2009-10-05 07:45 51°15.382 2°53.817 -999 -999 -999 -999 -999
2009-10-05 07:47 51°15.68 2°53.468 -999 -999 -999 -999 -999
2009-10-05 07:49 51°15.993 2°53.161 -999 -999 -999 -999 -999
2009-10-05 07:51 51°16.316 2°52.911 -999 -999 -999 -999 -999
2009-10-05 07:53 51°16.643 2°52.674 -999 -999 -999 -999 -999
2009-10-05 07:55 51°16.962 2°52.461 -999 -999 -999 -999 -999
2009-10-05 07:57 51°17.289 2°52.321 -999 -999 -999 -999 -999
2009-10-05 07:59 51°17.623 2°52.228 -999 -999 -999 -999 -999
2009-10-05 08:01 51°17.958 2°52.137 -999 -999 -999 -999 -999
2009-10-05 08:03 51°18.293 2°52.073 -999 -999 -999 -999 -999
2009-10-05 08:05 51°18.626 2°52.11 -999 -999 -999 -999 -999
2009-10-05 08:07 51°18.965 2°52.086 -999 -999 -999 -999 -999
2009-10-05 08:09 51°19.307 2°51.998 -999 -999 -999 -999 -999
2009-10-05 08:11 51°19.645 2°51.841 -999 -999 -999 -999 -999
2009-10-05 08:13 51°19.978 2°51.62 -999 -999 -999 -999 -999
2009-10-05 08:15 51°20.312 2°51.418 -999 -999 -999 -999 -999
2009-10-05 08:17 51°20.654 2°51.227 -999 -999 -999 -999 -999
2009-10-05 08:19 51°20.994 2°51.018 -999 -999 -999 -999 -999
2009-10-05 08:21 51°21.33 2°50.802 -999 -999 -999 -999 -999
2009-10-05 08:23 51°21.671 2°50.61 -999 -999 -999 -999 -999
2009-10-05 08:25 51°22.012 2°50.419 -999 -999 -999 -999 -999
2009-10-05 08:27 51°22.351 2°50.226 -999 -999 -999 -999 -999
2009-10-05 08:29 51°22.694 2°50.046 -999 -999 -999 -999 -999
2009-10-05 08:31 51°23.026 2°49.86 -999 -999 -999 -999 -999
2009-10-05 08:33 51°23.348 2°49.619 -999 -999 -999 -999 -999
2009-10-05 08:35 51°23.669 2°49.364 -999 -999 -999 -999 -999
2009-10-05 08:37 51°23.997 2°49.119 -999 -999 -999 -999 -999
2009-10-05 08:39 51°24.326 2°48.871 -999 -999 -999 -999 -999
2009-10-05 08:41 51°24.638 2°48.628 -999 -999 -999 -999 -999
2009-10-05 08:43 51°24.854 2°48.433 -999 -999 -999 -999 -999
2009-10-05 08:45 51°25.005 2°48.255 -999 -999 -999 -999 -999
2009-10-05 08:47 51°25.07 2°48.185 -999 -999 -999 -999 -999
2009-10-05 08:49 51°25.08 2°48.135 -999 -999 -999 -999 -999
2009-10-05 08:51 51°25.073 2°48.079 -999 -999 -999 -999 -999
2009-10-05 08:53 51°25.043 2°48.165 -999 -999 -999 -999 -999
2009-10-05 08:55 51°24.989 2°48.276 -999 -999 -999 -999 -999
2009-10-05 08:57 51°24.937 2°48.395 -999 -999 -999 -999 -999
2009-10-05 08:59 51°24.885 2°48.513 -999 -999 -999 -999 -999
2009-10-05 09:01 51°24.81 2°48.615 -999 -999 -999 -999 -999
2009-10-05 09:03 51°24.685 2°48.573 -999 -999 -999 -999 -999
2009-10-05 09:05 51°24.632 2°48.324 -999 -999 -999 -999 -999
2009-10-05 09:07 51°24.639 2°48.13 -999 -999 -999 -999 -999
2009-10-05 09:09 51°24.635 2°47.994 -999 -999 -999 -999 -999
2009-10-05 09:11 51°24.624 2°47.867 -999 -999 -999 -999 -999
2009-10-05 09:13 51°24.612 2°47.742 -999 -999 -999 -999 -999
2009-10-05 09:15 51°24.601 2°47.597 -999 -999 -999 -999 -999
2009-10-05 09:17 51°24.587 2°47.427 -999 -999 -999 -999 -999
2009-10-05 09:19 51°24.59 2°47.24 -999 -999 -999 -999 -999
2009-10-05 09:21 51°24.633 2°47.091 -999 -999 -999 -999 -999
2009-10-05 09:23 51°24.687 2°47.064 -999 -999 -999 -999 -999
2009-10-05 09:25 51°24.699 2°47.074 -999 -999 -999 -999 -999
2009-10-05 09:27 51°24.689 2°47.032 -999 -999 -999 -999 -999
2009-10-05 09:29 51°24.681 2°47.048 -999 -999 -999 -999 -999
2009-10-05 09:31 51°24.739 2°47.346 -999 -999 -999 -999 -999
2009-10-05 09:33 51°24.75 2°47.772 -999 -999 -999 -999 -999
2009-10-05 09:35 51°24.713 2°48.296 -999 -999 -999 -999 -999
2009-10-05 09:37 51°24.825 2°48.756 -999 -999 -999 -999 -999
2009-10-05 09:39 51°24.932 2°48.709 -999 -999 -999 -999 -999
2009-10-05 09:41 51°24.936 2°48.636 -999 -999 -999 -999 -999
2009-10-05 09:43 51°24.937 2°48.588 -999 -999 -999 -999 -999
2009-10-05 09:45 51°24.939 2°48.546 -999 -999 -999 -999 -999
2009-10-05 09:47 51°24.942 2°48.505 -999 -999 -999 -999 -999
2009-10-05 09:49 51°24.945 2°48.461 -999 -999 -999 -999 -999
2009-10-05 09:51 51°24.949 2°48.415 -999 -999 -999 -999 -999
2009-10-05 09:53 51°24.952 2°48.376 -999 -999 -999 -999 -999
2009-10-05 09:55 51°24.959 2°48.329 -999 -999 -999 -999 -999
2009-10-05 09:57 51°25.02 2°48.353 -999 -999 -999 -999 -999
2009-10-05 09:59 51°24.962 2°48.461 -999 -999 -999 -999 -999
2009-10-05 10:01 51°25.026 2°48.443 -999 -999 -999 -999 -999
2009-10-05 10:03 51°25.031 2°48.407 -999 -999 -999 -999 -999
2009-10-05 10:05 51°25.03 2°48.39 -999 -999 -999 -999 -999
2009-10-05 10:07 51°25.029 2°48.375 -999 -999 -999 -999 -999
2009-10-05 10:09 51°25.088 2°48.314 -999 -999 -999 -999 -999
2009-10-05 10:11 51°25.333 2°48.566 -999 -999 -999 -999 -999
2009-10-05 10:13 51°25.597 2°48.89 -999 -999 -999 -999 -999
2009-10-05 10:15 51°25.869 2°49.225 -999 -999 -999 -999 -999
2009-10-05 10:17 51°26.145 2°49.561 -999 -999 -999 -999 -999
2009-10-05 10:19 51°26.421 2°49.9 -999 -999 -999 -999 -999
2009-10-05 10:21 51°26.695 2°50.236 -999 -999 -999 -999 -999
2009-10-05 10:23 51°26.963 2°50.574 -999 -999 -999 -999 -999
2009-10-05 10:25 51°27.23 2°50.91 -999 -999 -999 -999 -999
2009-10-05 10:27 51°27.494 2°51.242 -999 -999 -999 -999 -999
2009-10-05 10:29 51°27.739 2°51.6 -999 -999 -999 -999 -999
2009-10-05 10:31 51°27.989 2°51.966 -999 -999 -999 -999 -999
2009-10-05 10:33 51°28.245 2°52.327 -999 -999 -999 -999 -999
2009-10-05 10:35 51°28.498 2°52.689 -999 -999 -999 -999 -999
2009-10-05 10:37 51°28.755 2°53.049 -999 -999 -999 -999 -999
2009-10-05 10:39 51°29.014 2°53.411 -999 -999 -999 -999 -999
2009-10-05 10:41 51°29.273 2°53.784 -999 -999 -999 -999 -999
2009-10-05 10:43 51°29.533 2°54.159 -999 -999 -999 -999 -999
2009-10-05 10:45 51°29.787 2°54.554 -999 -999 -999 -999 -999
2009-10-05 10:47 51°30.036 2°54.95 -999 -999 -999 -999 -999
2009-10-05 10:49 51°30.288 2°55.351 -999 -999 -999 -999 -999
2009-10-05 10:51 51°30.541 2°55.747 -999 -999 -999 -999 -999
2009-10-05 10:53 51°30.794 2°56.146 -999 -999 -999 -999 -999
2009-10-05 10:55 51°31.05 2°56.545 -999 -999 -999 -999 -999
2009-10-05 10:57 51°31.305 2°56.961 -999 -999 -999 -999 -999
2009-10-05 10:59 51°31.559 2°57.386 -999 -999 -999 -999 -999
2009-10-05 11:01 51°31.812 2°57.811 -999 -999 -999 -999 -999
2009-10-05 11:03 51°32.067 2°58.237 -999 -999 -999 -999 -999
2009-10-05 11:05 51°32.32 2°58.664 -999 -999 -999 -999 -999
2009-10-05 11:07 51°32.576 2°59.079 -999 -999 -999 -999 -999
2009-10-05 11:09 51°32.921 2°59.138 -999 -999 -999 -999 -999
2009-10-05 11:11 51°33.261 2°59.17 -999 -999 -999 -999 -999
2009-10-05 11:13 51°33.606 2°59.232 -999 -999 -999 -999 -999
2009-10-05 11:15 51°33.951 2°59.289 -999 -999 -999 -999 -999
2009-10-05 11:17 51°34.303 2°59.341 -999 -999 -999 -999 -999
2009-10-05 11:19 51°34.655 2°59.357 -999 -999 -999 -999 -999
2009-10-05 11:21 51°34.981 2°59.243 -999 -999 -999 -999 -999
2009-10-05 11:23 51°35.114 2°59.212 -999 -999 -999 -999 -999
2009-10-05 11:25 51°35.215 2°59.262 -999 -999 -999 -999 -999
2009-10-05 11:27 51°35.259 2°59.418 -999 -999 -999 -999 -999
2009-10-05 11:29 51°35.265 2°59.593 -999 -999 -999 -999 -999
2009-10-05 11:31 51°35.265 2°59.77 -999 -999 -999 -999 -999
2009-10-05 11:33 51°35.229 2°59.941 -999 -999 -999 -999 -999
2009-10-05 11:35 51°35.157 3°0.064 -999 -999 -999 -999 -999
2009-10-05 11:37 51°35.082 3°0.167 -999 -999 -999 -999 -999
2009-10-05 11:39 51°35.003 3°0.272 -999 -999 -999 -999 -999
2009-10-05 11:41 51°34.927 3°0.379 -999 -999 -999 -999 -999
2009-10-05 11:43 51°34.859 3°0.501 -999 -999 -999 -999 -999
2009-10-05 11:45 51°34.784 3°0.626 -999 -999 -999 -999 -999
2009-10-05 11:47 51°34.71 3°0.765 -999 -999 -999 -999 -999
2009-10-05 11:49 51°34.652 3°0.929 -999 -999 -999 -999 -999
2009-10-05 11:51 51°34.596 3°1.095 -999 -999 -999 -999 -999
2009-10-05 11:53 51°34.543 3°1.261 -999 -999 -999 -999 -999
2009-10-05 11:55 51°34.493 3°1.427 -999 -999 -999 -999 -999
2009-10-05 11:57 51°34.461 3°1.613 -999 -999 -999 -999 -999
2009-10-05 11:59 51°34.475 3°1.836 -999 -999 -999 -999 -999
2009-10-05 13:01 51°38.862 2°55.982 -999 -999 -999 -999 -999
2009-10-05 13:03 51°39.153 2°55.625 -999 -999 -999 -999 -999
2009-10-05 13:05 51°39.446 2°55.267 -999 -999 -999 -999 -999
2009-10-05 13:07 51°39.742 2°54.917 -999 -999 -999 -999 -999
2009-10-05 13:09 51°40.041 2°54.57 -999 -999 -999 -999 -999
2009-10-05 13:11 51°40.336 2°54.221 -999 -999 -999 -999 -999
2009-10-05 13:13 51°40.632 2°53.867 -999 -999 -999 -999 -999
2009-10-05 13:15 51°40.93 2°53.511 -999 -999 -999 -999 -999
2009-10-05 13:17 51°41.226 2°53.151 -999 -999 -999 -999 -999
2009-10-05 13:19 51°41.522 2°52.785 -999 -999 -999 -999 -999
2009-10-05 13:21 51°41.813 2°52.407 -999 -999 -999 -999 -999
2009-10-05 13:23 51°42.104 2°52.034 -999 -999 -999 -999 -999
2009-10-05 13:25 51°42.398 2°51.662 -999 -999 -999 -999 -999
2009-10-05 13:27 51°42.686 2°51.28 -999 -999 -999 -999 -999
2009-10-05 13:29 51°42.974 2°50.895 -999 -999 -999 -999 -999
2009-10-05 13:31 51°43.243 2°50.487 -999 -999 -999 -999 -999
2009-10-05 13:33 51°43.503 2°50.072 -999 -999 -999 -999 -999
2009-10-05 13:35 51°43.733 2°49.636 -999 -999 -999 -999 -999
2009-10-05 13:37 51°43.938 2°49.175 -999 -999 -999 -999 -999
2009-10-05 13:39 51°43.994 2°48.672 -999 -999 -999 -999 -999
2009-10-05 13:41 51°44.041 2°48.154 -999 -999 -999 -999 -999
2009-10-05 13:43 51°44.094 2°47.634 -999 -999 -999 -999 -999
2009-10-05 13:45 51°44.157 2°47.114 -999 -999 -999 -999 -999
2009-10-05 13:47 51°44.218 2°46.594 -999 -999 -999 -999 -999
2009-10-05 13:49 51°44.28 2°46.067 -999 -999 -999 -999 -999
2009-10-05 13:51 51°44.343 2°45.537 -999 -999 -999 -999 -999
2009-10-05 13:53 51°44.403 2°45.004 -999 -999 -999 -999 -999
2009-10-05 13:55 51°44.459 2°44.471 -999 -999 -999 -999 -999
2009-10-05 13:57 51°44.52 2°43.942 -999 -999 -999 -999 -999
2009-10-05 13:59 51°44.577 2°43.408 -999 -999 -999 -999 -999
2009-10-05 14:01 51°44.641 2°42.881 -999 -999 -999 -999 -999
2009-10-05 14:03 51°44.598 2°42.409 -999 -999 -999 -999 -999
2009-10-05 14:05 51°44.697 2°42.26 -999 -999 -999 -999 -999
2009-10-05 14:07 51°44.857 2°42.327 -999 -999 -999 -999 -999
2009-10-05 14:09 51°45 2°42.503 -999 -999 -999 -999 -999
2009-10-05 14:11 51°45.126 2°42.666 -999 -999 -999 -999 -999
2009-10-05 14:13 51°45.253 2°42.791 -999 -999 -999 -999 -999
2009-10-05 14:15 51°45.388 2°42.897 -999 -999 -999 -999 -999
2009-10-05 14:17 51°45.523 2°43.005 -999 -999 -999 -999 -999
2009-10-05 14:19 51°45.628 2°43.156 -999 -999 -999 -999 -999
2009-10-05 14:21 51°45.704 2°43.325 -999 -999 -999 -999 -999
2009-10-05 14:23 51°45.762 2°43.501 -999 -999 -999 -999 -999
2009-10-05 14:25 51°45.794 2°43.666 -999 -999 -999 -999 -999
2009-10-05 14:27 51°45.787 2°43.783 -999 -999 -999 -999 -999
2009-10-05 14:29 51°45.738 2°43.829 -999 -999 -999 -999 -999
2009-10-05 14:31 51°45.679 2°43.848 -999 -999 -999 -999 -999
2009-10-05 14:33 51°45.622 2°43.864 -999 -999 -999 -999 -999
2009-10-05 14:35 51°45.564 2°43.892 -999 -999 -999 -999 -999
2009-10-05 14:37 51°45.504 2°43.918 -999 -999 -999 -999 -999
2009-10-05 14:39 51°45.47 2°44.067 -999 -999 -999 -999 -999
2009-10-05 14:41 51°45.515 2°44.304 -999 -999 -999 -999 -999
2009-10-05 14:43 51°45.609 2°44.528 -999 -999 -999 -999 -999
2009-10-05 14:45 51°45.734 2°44.714 -999 -999 -999 -999 -999
2009-10-05 14:47 51°45.833 2°44.879 -999 -999 -999 -999 -999
2009-10-05 14:49 51°45.917 2°45.03 -999 -999 -999 -999 -999
2009-10-05 14:51 51°46.001 2°45.189 -999 -999 -999 -999 -999
2009-10-05 14:53 51°46.064 2°45.355 -999 -999 -999 -999 -999
2009-10-05 14:55 51°46.119 2°45.454 -999 -999 -999 -999 -999
2009-10-05 14:57 51°46.207 2°45.558 -999 -999 -999 -999 -999
2009-10-05 14:59 51°46.309 2°45.5 -999 -999 -999 -999 -999
2009-10-05 15:01 51°46.222 2°45.124 -999 -999 -999 -999 -999
2009-10-05 15:03 51°46.068 2°44.672 -999 -999 -999 -999 -999
2009-10-05 15:05 51°45.912 2°44.22 -999 -999 -999 -999 -999
2009-10-05 15:07 51°45.753 2°43.765 -999 -999 -999 -999 -999
2009-10-05 15:09 51°45.594 2°43.309 -999 -999 -999 -999 -999
2009-10-05 15:11 51°45.436 2°42.857 -999 -999 -999 -999 -999
2009-10-05 15:13 51°45.234 2°42.459 -999 -999 -999 -999 -999
2009-10-05 15:15 51°45.015 2°42.09 -999 -999 -999 -999 -999
2009-10-05 15:17 51°45.027 2°41.903 -999 -999 -999 -999 -999
2009-10-05 15:19 51°45.105 2°41.924 -999 -999 -999 -999 -999
2009-10-05 15:21 51°45.184 2°41.945 -999 -999 -999 -999 -999
2009-10-05 15:23 51°45.258 2°41.964 -999 -999 -999 -999 -999
2009-10-05 15:25 51°45.328 2°41.991 -999 -999 -999 -999 -999
2009-10-05 15:27 51°45.403 2°42.033 -999 -999 -999 -999 -999
2009-10-05 15:29 51°45.48 2°42.031 -999 -999 -999 -999 -999
2009-10-05 15:31 51°45.596 2°42.135 -999 -999 -999 -999 -999
2009-10-05 15:33 51°45.542 2°42.165 -999 -999 -999 -999 -999
2009-10-05 15:35 51°45.353 2°41.913 -999 -999 -999 -999 -999
2009-10-05 15:37 51°45.174 2°41.472 -999 -999 -999 -999 -999
2009-10-05 15:39 51°44.988 2°41.037 -999 -999 -999 -999 -999
2009-10-05 15:41 51°44.8 2°40.605 -999 -999 -999 -999 -999
2009-10-05 15:43 51°44.613 2°40.172 -999 -999 -999 -999 -999
2009-10-05 15:45 51°44.422 2°39.737 -999 -999 -999 -999 -999
2009-10-05 15:47 51°44.229 2°39.301 -999 -999 -999 -999 -999
2009-10-05 15:49 51°44.035 2°38.868 -999 -999 -999 -999 -999
2009-10-05 15:51 51°43.845 2°38.426 -999 -999 -999 -999 -999
2009-10-05 15:53 51°43.869 2°37.865 -999 -999 -999 -999 -999
2009-10-05 15:55 51°43.971 2°37.292 -999 -999 -999 -999 -999
2009-10-05 15:57 51°44.079 2°36.719 -999 -999 -999 -999 -999
2009-10-05 15:59 51°44.185 2°36.146 -999 -999 -999 -999 -999
2009-10-05 16:01 51°44.289 2°35.573 -999 -999 -999 -999 -999
2009-10-05 16:03 51°44.396 2°35.003 -999 -999 -999 -999 -999
2009-10-05 16:05 51°44.501 2°34.43 -999 -999 -999 -999 -999
2009-10-05 16:07 51°44.606 2°33.854 -999 -999 -999 -999 -999
2009-10-05 16:09 51°44.716 2°33.28 -999 -999 -999 -999 -999
2009-10-05 16:11 51°44.775 2°32.705 -999 -999 -999 -999 -999
2009-10-05 16:13 51°44.764 2°32.126 -999 -999 -999 -999 -999
2009-10-05 16:15 51°44.757 2°31.536 -999 -999 -999 -999 -999
2009-10-05 16:17 51°44.752 2°30.96 -999 -999 -999 -999 -999
2009-10-05 16:19 51°44.671 2°30.437 -999 -999 -999 -999 -999
2009-10-05 16:21 51°44.482 2°30.008 -999 -999 -999 -999 -999
2009-10-05 16:23 51°44.29 2°29.578 -999 -999 -999 -999 -999
2009-10-05 16:25 51°44.102 2°29.144 -999 -999 -999 -999 -999
2009-10-05 16:27 51°43.91 2°28.714 -999 -999 -999 -999 -999
2009-10-05 16:29 51°43.718 2°28.285 -999 -999 -999 -999 -999
2009-10-05 16:31 51°43.527 2°27.857 -999 -999 -999 -999 -999
2009-10-05 16:33 51°43.333 2°27.423 -999 -999 -999 -999 -999
2009-10-05 16:35 51°43.14 2°26.985 -999 -999 -999 -999 -999
2009-10-05 16:37 51°42.947 2°26.548 -999 -999 -999 -999 -999
2009-10-05 16:39 51°42.75 2°26.114 -999 -999 -999 -999 -999
2009-10-05 16:41 51°42.553 2°25.677 -999 -999 -999 -999 -999
2009-10-05 16:43 51°42.356 2°25.239 -999 -999 -999 -999 -999
2009-10-05 16:45 51°42.137 2°24.846 -999 -999 -999 -999 -999
2009-10-05 16:47 51°41.886 2°24.501 -999 -999 -999 -999 -999
2009-10-05 16:49 51°41.646 2°24.141 -999 -999 -999 -999 -999
2009-10-05 16:51 51°41.404 2°23.775 -999 -999 -999 -999 -999
2009-10-05 16:53 51°41.162 2°23.413 -999 -999 -999 -999 -999
2009-10-05 16:55 51°40.917 2°23.042 -999 -999 -999 -999 -999
2009-10-05 16:57 51°40.838 2°23.078 -999 -999 -999 -999 -999
2009-10-05 16:59 51°40.917 2°23.265 -999 -999 -999 -999 -999
2009-10-05 17:01 51°40.925 2°23.463 -999 -999 -999 -999 -999
2009-10-05 17:03 51°40.859 2°23.53 -999 -999 -999 -999 -999
2009-10-05 17:05 51°40.775 2°23.462 -999 -999 -999 -999 -999
2009-10-05 17:07 51°40.711 2°23.336 -999 -999 -999 -999 -999
2009-10-05 17:09 51°40.669 2°23.193 -999 -999 -999 -999 -999
2009-10-05 17:11 51°40.71 2°23.014 -999 -999 -999 -999 -999
2009-10-05 17:13 51°40.832 2°22.903 -999 -999 -999 -999 -999
2009-10-05 17:15 51°40.974 2°22.911 -999 -999 -999 -999 -999
2009-10-05 17:17 51°41.085 2°23.004 -999 -999 -999 -999 -999
2009-10-05 17:19 51°41.165 2°23.143 -999 -999 -999 -999 -999
2009-10-05 17:21 51°41.23 2°23.293 -999 -999 -999 -999 -999
2009-10-05 17:23 51°41.286 2°23.45 -999 -999 -999 -999 -999
2009-10-05 17:25 51°41.338 2°23.608 -999 -999 -999 -999 -999
2009-10-05 17:27 51°41.4 2°23.759 -999 -999 -999 -999 -999
2009-10-05 17:29 51°41.476 2°23.897 -999 -999 -999 -999 -999
2009-10-05 17:31 51°41.561 2°24.027 -999 -999 -999 -999 -999
2009-10-05 17:33 51°41.646 2°24.145 -999 -999 -999 -999 -999
2009-10-05 17:35 51°41.737 2°24.249 -999 -999 -999 -999 -999
2009-10-05 17:37 51°41.816 2°24.367 -999 -999 -999 -999 -999
2009-10-05 17:39 51°41.876 2°24.502 -999 -999 -999 -999 -999
2009-10-05 17:41 51°41.919 2°24.646 -999 -999 -999 -999 -999
2009-10-05 17:43 51°41.957 2°24.782 -999 -999 -999 -999 -999
2009-10-05 17:45 51°41.985 2°24.919 -999 -999 -999 -999 -999
2009-10-05 17:47 51°41.998 2°25.053 -999 -999 -999 -999 -999
2009-10-05 17:49 51°41.994 2°25.137 -999 -999 -999 -999 -999
2009-10-05 17:51 51°42.001 2°25.171 -999 -999 -999 -999 -999
2009-10-05 17:53 51°41.963 2°25.195 -999 -999 -999 -999 -999
2009-10-05 17:55 51°41.686 2°25.155 -999 -999 -999 -999 -999
2009-10-05 17:57 51°41.413 2°25.079 -999 -999 -999 -999 -999
2009-10-05 17:59 51°41.155 2°25.016 -999 -999 -999 -999 -999
2009-10-05 18:01 51°41.01 2°24.924 -999 -999 -999 -999 -999
2009-10-05 18:03 51°41.018 2°24.913 -999 -999 -999 -999 -999
2009-10-05 18:05 51°41.023 2°24.912 -999 -999 -999 -999 -999
2009-10-05 18:07 51°41.025 2°24.904 -999 -999 -999 -999 -999
2009-10-05 18:09 51°41.028 2°24.894 -999 -999 -999 -999 -999
2009-10-05 18:11 51°41.031 2°24.882 -999 -999 -999 -999 -999
2009-10-05 18:13 51°41.036 2°24.866 -999 -999 -999 -999 -999
2009-10-05 18:15 51°41.08 2°24.859 -999 -999 -999 -999 -999
2009-10-05 18:17 51°41.048 2°24.952 -999 -999 -999 -999 -999
2009-10-05 18:19 51°40.849 2°25.218 -999 -999 -999 -999 -999
2009-10-05 18:21 51°40.643 2°25.578 -999 -999 -999 -999 -999
2009-10-05 18:23 51°40.46 2°25.863 -999 -999 -999 -999 -999
2009-10-05 18:25 51°40.276 2°26.135 -999 -999 -999 -999 -999
2009-10-05 18:27 51°40.09 2°26.408 -999 -999 -999 -999 -999
2009-10-05 18:29 51°39.902 2°26.679 -999 -999 -999 -999 -999
2009-10-05 18:31 51°39.712 2°26.946 -999 -999 -999 -999 -999
2009-10-05 18:33 51°39.519 2°27.214 -999 -999 -999 -999 -999
2009-10-05 18:35 51°39.324 2°27.478 -999 -999 -999 -999 -999
2009-10-05 18:37 51°39.129 2°27.748 -999 -999 -999 -999 -999
2009-10-05 18:39 51°38.934 2°28.017 -999 -999 -999 -999 -999
2009-10-05 18:41 51°38.744 2°28.283 -999 -999 -999 -999 -999
2009-10-05 18:43 51°38.553 2°28.552 -999 -999 -999 -999 -999
2009-10-05 18:45 51°38.354 2°28.813 -999 -999 -999 -999 -999
2009-10-05 18:47 51°38.142 2°29.053 -999 -999 -999 -999 -999
2009-10-05 18:49 51°37.907 2°29.24 -999 -999 -999 -999 -999
2009-10-05 18:51 51°37.666 2°29.424 -999 -999 -999 -999 -999
2009-10-05 18:53 51°37.41 2°29.475 -999 -999 -999 -999 -999
2009-10-05 18:55 51°37.157 2°29.261 -999 -999 -999 -999 -999
2009-10-05 18:57 51°36.902 2°29.04 -999 -999 -999 -999 -999
2009-10-05 18:59 51°36.646 2°28.815 -999 -999 -999 -999 -999
2009-10-05 19:01 51°36.387 2°28.594 -999 -999 -999 -999 -999
2009-10-05 19:03 51°36.129 2°28.366 -999 -999 -999 -999 -999
2009-10-05 19:05 51°35.869 2°28.142 -999 -999 -999 -999 -999
2009-10-05 19:07 51°35.608 2°27.918 -999 -999 -999 -999 -999
2009-10-05 19:09 51°35.344 2°27.696 -999 -999 -999 -999 -999
2009-10-05 19:11 51°35.08 2°27.473 -999 -999 -999 -999 -999
2009-10-05 19:13 51°34.816 2°27.245 -999 -999 -999 -999 -999
2009-10-05 19:15 51°34.55 2°27.017 -999 -999 -999 -999 -999
2009-10-05 19:17 51°34.28 2°26.786 -999 -999 -999 -999 -999
2009-10-05 19:19 51°34.014 2°26.561 -999 -999 -999 -999 -999
2009-10-05 19:21 51°33.743 2°26.334 -999 -999 -999 -999 -999
2009-10-05 19:23 51°33.475 2°26.106 -999 -999 -999 -999 -999
2009-10-05 19:25 51°33.204 2°25.87 -999 -999 -999 -999 -999
2009-10-05 19:27 51°32.931 2°25.635 -999 -999 -999 -999 -999
2009-10-05 19:29 51°32.656 2°25.402 -999 -999 -999 -999 -999
2009-10-05 19:31 51°32.38 2°25.165 -999 -999 -999 -999 -999
2009-10-05 19:33 51°32.1 2°24.929 -999 -999 -999 -999 -999
2009-10-05 19:35 51°31.82 2°24.692 -999 -999 -999 -999 -999
2009-10-05 19:37 51°31.539 2°24.454 -999 -999 -999 -999 -999
2009-10-05 19:39 51°31.255 2°24.221 -999 -999 -999 -999 -999
2009-10-05 19:41 51°30.969 2°23.981 -999 -999 -999 -999 -999
2009-10-05 19:43 51°30.687 2°23.742 -999 -999 -999 -999 -999
2009-10-05 19:45 51°30.399 2°23.495 -999 -999 -999 -999 -999
2009-10-05 19:47 51°30.113 2°23.251 -999 -999 -999 -999 -999
2009-10-05 19:49 51°29.828 2°23.006 -999 -999 -999 -999 -999
2009-10-05 19:51 51°29.541 2°22.757 -999 -999 -999 -999 -999
2009-10-05 19:53 51°29.255 2°22.503 -999 -999 -999 -999 -999
2009-10-05 19:55 51°28.966 2°22.249 -999 -999 -999 -999 -999
2009-10-05 19:57 51°28.664 2°22.074 -999 -999 -999 -999 -999
2009-10-05 19:59 51°28.357 2°21.917 -999 -999 -999 -999 -999
2009-10-05 20:01 51°28.159 2°21.805 -999 -999 -999 -999 -999
2009-10-05 20:03 51°28.017 2°21.672 -999 -999 -999 -999 -999
2009-10-05 20:05 51°27.876 2°21.485 -999 -999 -999 -999 -999
2009-10-05 20:07 51°27.751 2°21.332 -999 -999 -999 -999 -999
2009-10-05 20:09 51°27.639 2°21.224 -999 -999 -999 -999 -999
2009-10-05 20:11 51°27.516 2°21.144 -999 -999 -999 -999 -999
2009-10-05 20:13 51°27.389 2°21.062 -999 -999 -999 -999 -999
2009-10-05 20:15 51°27.26 2°20.985 -999 -999 -999 -999 -999
2009-10-05 20:17 51°27.13 2°20.901 -999 -999 -999 -999 -999
2009-10-05 20:19 51°26.999 2°20.817 -999 -999 -999 -999 -999
2009-10-05 20:21 51°26.868 2°20.733 -999 -999 -999 -999 -999
2009-10-05 20:23 51°26.738 2°20.647 -999 -999 -999 -999 -999
2009-10-05 20:25 51°26.607 2°20.554 -999 -999 -999 -999 -999
2009-10-05 20:27 51°26.475 2°20.458 -999 -999 -999 -999 -999
2009-10-05 20:29 51°26.345 2°20.361 -999 -999 -999 -999 -999
2009-10-05 20:31 51°26.215 2°20.257 -999 -999 -999 -999 -999
2009-10-05 20:33 51°26.085 2°20.149 -999 -999 -999 -999 -999
2009-10-05 20:35 51°25.957 2°20.029 -999 -999 -999 -999 -999
2009-10-05 20:37 51°25.866 2°19.853 -999 -999 -999 -999 -999
2009-10-05 20:39 51°25.819 2°19.668 -999 -999 -999 -999 -999
2009-10-05 20:41 51°25.837 2°19.553 -999 -999 -999 -999 -999
2009-10-05 20:43 51°25.823 2°19.489 -999 -999 -999 -999 -999
2009-10-05 20:45 51°25.808 2°19.433 -999 -999 -999 -999 -999
2009-10-05 20:47 51°25.993 2°19.594 -999 -999 -999 -999 -999
2009-10-05 20:49 51°26.247 2°19.868 -999 -999 -999 -999 -999
2009-10-05 20:51 51°26.503 2°20.147 -999 -999 -999 -999 -999
2009-10-05 20:53 51°26.756 2°20.441 -999 -999 -999 -999 -999
2009-10-05 20:55 51°27.01 2°20.732 -999 -999 -999 -999 -999
2009-10-05 20:57 51°27.252 2°21.014 -999 -999 -999 -999 -999
2009-10-05 20:59 51°27.301 2°21.077 -999 -999 -999 -999 -999
2009-10-05 21:01 51°27.278 2°21.065 -999 -999 -999 -999 -999
2009-10-05 21:03 51°27.249 2°21.029 -999 -999 -999 -999 -999
2009-10-05 21:05 51°27.206 2°20.987 -999 -999 -999 -999 -999
2009-10-05 21:07 51°27.157 2°20.947 -999 -999 -999 -999 -999
2009-10-05 21:09 51°27.127 2°21.014 -999 -999 -999 -999 -999
2009-10-05 21:11 51°26.92 2°21.138 -999 -999 -999 -999 -999
2009-10-05 21:13 51°26.643 2°21.294 -999 -999 -999 -999 -999
2009-10-05 21:15 51°26.368 2°21.451 -999 -999 -999 -999 -999
2009-10-05 21:17 51°26.103 2°21.611 -999 -999 -999 -999 -999
2009-10-05 21:19 51°25.84 2°21.763 -999 -999 -999 -999 -999
2009-10-05 21:21 51°25.581 2°21.911 -999 -999 -999 -999 -999
2009-10-05 21:23 51°25.317 2°22.058 -999 -999 -999 -999 -999
2009-10-05 21:25 51°25.042 2°22.2 -999 -999 -999 -999 -999
2009-10-05 21:27 51°24.762 2°22.34 -999 -999 -999 -999 -999
2009-10-05 21:29 51°24.484 2°22.477 -999 -999 -999 -999 -999
2009-10-05 21:31 51°24.211 2°22.618 -999 -999 -999 -999 -999
2009-10-05 21:33 51°23.942 2°22.77 -999 -999 -999 -999 -999
2009-10-05 21:35 51°23.67 2°22.916 -999 -999 -999 -999 -999
2009-10-05 21:37 51°23.395 2°23.067 -999 -999 -999 -999 -999
2009-10-05 21:39 51°23.123 2°23.215 -999 -999 -999 -999 -999
2009-10-05 21:41 51°22.845 2°23.366 -999 -999 -999 -999 -999
2009-10-05 21:43 51°22.569 2°23.518 -999 -999 -999 -999 -999
2009-10-05 21:45 51°22.298 2°23.652 -999 -999 -999 -999 -999
2009-10-05 21:47 51°22.03 2°23.79 -999 -999 -999 -999 -999
2009-10-05 21:49 51°21.761 2°23.901 -999 -999 -999 -999 -999
2009-10-05 21:51 51°21.484 2°24.012 -999 -999 -999 -999 -999
2009-10-05 21:53 51°21.21 2°24.111 -999 -999 -999 -999 -999
2009-10-05 21:55 51°20.923 2°24.158 -999 -999 -999 -999 -999
2009-10-05 21:57 51°20.631 2°24.18 -999 -999 -999 -999 -999
2009-10-05 21:59 51°20.34 2°24.218 -999 -999 -999 -999 -999
2009-10-05 22:01 51°20.057 2°24.276 -999 -999 -999 -999 -999
2009-10-05 22:03 51°19.769 2°24.339 -999 -999 -999 -999 -999
2009-10-05 22:05 51°19.481 2°24.401 -999 -999 -999 -999 -999
2009-10-05 22:07 51°19.192 2°24.472 -999 -999 -999 -999 -999
2009-10-05 22:09 51°18.905 2°24.553 -999 -999 -999 -999 -999
2009-10-05 22:11 51°18.619 2°24.642 -999 -999 -999 -999 -999
2009-10-05 22:13 51°18.331 2°24.733 -999 -999 -999 -999 -999
2009-10-05 22:15 51°18.045 2°24.822 -999 -999 -999 -999 -999
2009-10-05 22:17 51°17.759 2°24.913 -999 -999 -999 -999 -999
2009-10-05 22:19 51°17.481 2°25.002 -999 -999 -999 -999 -999
2009-10-05 22:21 51°17.209 2°25.087 -999 -999 -999 -999 -999
2009-10-05 22:23 51°17.086 2°25.215 -999 -999 -999 -999 -999
2009-10-05 22:25 51°17.086 2°25.422 -999 -999 -999 -999 -999
2009-10-05 22:27 51°17.088 2°25.598 -999 -999 -999 -999 -999
2009-10-05 22:29 51°17.007 2°25.699 -999 -999 -999 -999 -999
2009-10-05 22:31 51°16.883 2°25.727 -999 -999 -999 -999 -999
2009-10-05 22:33 51°16.757 2°25.748 -999 -999 -999 -999 -999
2009-10-05 22:35 51°16.644 2°25.742 -999 -999 -999 -999 -999
2009-10-05 22:37 51°16.541 2°25.712 -999 -999 -999 -999 -999
2009-10-05 22:39 51°16.468 2°25.607 -999 -999 -999 -999 -999
2009-10-05 22:41 51°16.403 2°25.491 -999 -999 -999 -999 -999
2009-10-05 22:43 51°16.341 2°25.373 -999 -999 -999 -999 -999
2009-10-05 22:45 51°16.28 2°25.26 -999 -999 -999 -999 -999
2009-10-05 22:47 51°16.221 2°25.15 -999 -999 -999 -999 -999
2009-10-05 22:49 51°16.159 2°25.036 -999 -999 -999 -999 -999
2009-10-05 22:51 51°16.086 2°24.925 -999 -999 -999 -999 -999
2009-10-05 22:53 51°15.996 2°24.837 -999 -999 -999 -999 -999
2009-10-05 22:55 51°15.901 2°24.764 -999 -999 -999 -999 -999
2009-10-05 22:57 51°15.791 2°24.745 -999 -999 -999 -999 -999
2009-10-05 22:59 51°15.684 2°24.72 -999 -999 -999 -999 -999
2009-10-05 23:01 51°15.578 2°24.694 -999 -999 -999 -999 -999
2009-10-05 23:03 51°15.473 2°24.674 -999 -999 -999 -999 -999
2009-10-05 23:05 51°15.368 2°24.656 -999 -999 -999 -999 -999
2009-10-05 23:07 51°15.292 2°24.591 -999 -999 -999 -999 -999
2009-10-05 23:09 51°15.241 2°24.522 -999 -999 -999 -999 -999
2009-10-05 23:11 51°15.216 2°24.448 -999 -999 -999 -999 -999
2009-10-05 23:13 51°15.237 2°24.393 -999 -999 -999 -999 -999
2009-10-05 23:15 51°15.261 2°24.399 -999 -999 -999 -999 -999
2009-10-05 23:17 51°15.387 2°24.419 -999 -999 -999 -999 -999
2009-10-05 23:19 51°15.627 2°24.56 -999 -999 -999 -999 -999
2009-10-05 23:21 51°15.862 2°24.727 -999 -999 -999 -999 -999
2009-10-05 23:23 51°16.02 2°25.093 -999 -999 -999 -999 -999
2009-10-05 23:25 51°16.13 2°25.429 -999 -999 -999 -999 -999
2009-10-05 23:27 51°16.143 2°25.552 -999 -999 -999 -999 -999
2009-10-05 23:29 51°16.14 2°25.654 -999 -999 -999 -999 -999
2009-10-05 23:31 51°16.198 2°25.686 -999 -999 -999 -999 -999
2009-10-05 23:33 51°16.258 2°25.437 -999 -999 -999 -999 -999
2009-10-05 23:35 51°16.182 2°25.152 -999 -999 -999 -999 -999
2009-10-05 23:37 51°16.274 2°25.052 -999 -999 -999 -999 -999
2009-10-05 23:39 51°16.298 2°25.126 -999 -999 -999 -999 -999
2009-10-05 23:41 51°16.313 2°25.206 -999 -999 -999 -999 -999
2009-10-05 23:43 51°16.325 2°25.286 -999 -999 -999 -999 -999
2009-10-05 23:45 51°16.335 2°25.365 -999 -999 -999 -999 -999
2009-10-05 23:47 51°16.345 2°25.446 -999 -999 -999 -999 -999
2009-10-05 23:49 51°16.353 2°25.54 -999 -999 -999 -999 -999
2009-10-05 23:51 51°16.264 2°25.652 -999 -999 -999 -999 -999
2009-10-05 23:53 51°16.109 2°25.681 -999 -999 -999 -999 -999
2009-10-05 23:55 51°15.958 2°25.844 -999 -999 -999 -999 -999
2009-10-05 23:57 51°15.858 2°26.192 -999 -999 -999 -999 -999
2009-10-05 23:59 51°15.774 2°26.565 -999 -999 -999 -999 -999